ASIASAT 4

Last updated on Sat Aug 15 2026 00:02:57 GMT+0000 (Coordinated Universal Time)

1 27718U 03014A 26226.55406850 -.00000238 00000+0 00000+0 0 9996 2 27718 4.8479 74.9917 0002733 69.8696 165.1322 1.00271487 45880
UTC large
Height (km)
Speed (km/s)
/
Latitude / Longitude
Inclination (degrees)
Orbital Period (minutes)
Azimuth
Elevation
Range (km)
Doppler Factor

Next 0 passes for location: London (51.5072 / 0.1276)

No passes found over London.
ASIASAT 4